Regional Weather Roundup
Issued by NWS

Home | Current Version | Previous Version | Graphics & Text | Print | Product List | Glossary On
Versions: 1 2 3 4 5 6 7 8 9 10 11 12 13 14 15 16 17 18 19 20 21 22 23 24 25 26 27 28 29 30 31 32 33 34 35 36 37 38 39 40 41 42 43 44 45 46 47 48 49 50
000
ASUS43 KLOT 210308
RWRIL

ILLINOIS REGIONAL WEATHER ROUNDUP
NATIONAL WEATHER SERVICE CHICAGO/ROMEOVILLE IL
900 PM CST MON NOV 20 2017

NOTE: "FAIR" INDICATES FEW OR NO CLOUDS BELOW 12,000 FEET WITH NO
SIGNIFICANT WEATHER AND/OR OBSTRUCTIONS TO VISIBILITY.

* THESE STATIONS ARE NOT UNDER NWS QUALITY CONTROL. THEY ALSO MAY NOT
  REPORT WEATHER SUCH AS PRECIPITATION OR FOG.

ILZ001-002-007-009-015-016-024-210400-
NORTHWEST ILLINOIS

CITY           SKY/WX    TMP DP  RH WIND       PRES   REMARKS
MOLINE         CLOUDY    51  31  46 S14G22    29.68F
STERLING*      MOCLDY    46  33  60 VRB3      29.71S
SAVANNA*       CLOUDY    44  34  67 S8        29.66F
$$

ILZ003-004-008-010-011-017-018-210400-
NORTH CENTRAL ILLINOIS

CITY           SKY/WX    TMP DP  RH WIND       PRES   REMARKS
ROCKFORD       CLOUDY    42  33  70 S13       29.70F
FREEPORT*      CLOUDY    45  32  60 S21       29.67F
ROCHELLE*      CLOUDY    41  34  77 S15       29.71F
DE KALB*       CLOUDY    41  33  73 S21G26    29.72F
PERU*          CLOUDY    43  32  64 S17       29.75F
$$

ILZ005-006-012>014-019>023-210400-
NORTHEAST ILLINOIS

CITY           SKY/WX    TMP DP  RH WIND       PRES   REMARKS
CHICAGO-OHARE  CLOUDY    47  30  51 S23G37    29.72F
CHICAGO-MIDWAY MOCLDY    45  31  58 S17G30    29.75F
AURORA         CLOUDY    44  32  62 S15       29.75F
LANSING*       PTCLDY    42  33  69 S22G28    29.79S
JOLIET*        CLOUDY    45  32  61 S15G21    29.78S
WAUKEGAN       CLOUDY    47  32  56 SW23G36   29.67F
DUPAGE AIRPORT CLOUDY    43  33  68 S18G29    29.73F
KANKAKEE*      CLOUDY    40  31  69 S15G22    29.83S
WHEELING       CLOUDY    47  32  56 S22G31    29.72F
MORRIS*        CLOUDY    43  32  65 S21       29.76F
ROMEOVILLE*    CLOUDY    44  32  62 SW25G32   29.76F
NORTHERLY ISL    N/A     45  29  53 S25         N/A
$$

LMZ740>746-210400-
SOUTHERN LAKE MICHIGAN

STATION/POSITION SKY/WX   TEMP    WIND        PRES    VSBY  WAVE
                          AIR SEA DIR/SP/G                  HT/PER
                          (F)     (DEG/KT/KT) (MB)    (MI)  (FT/S)
SOUTHERN BUOY              48 48  230/ 27/ 35 1005.0F         9/ 7
HARRISON CRIB              47     210/ 37/ 44   N/A
BURNHAM HARBOR             45     170/ 20/ 24   N/A
CALUMET HARBOR             45     190/ 18/ 26 1007.4F
BURNS HARBOR               45     200/ 21/ 27 1008.8R
MICHIGAN CITY              44     180/ 20/ 27   N/A
$$

ILZ025>027-034>036-040-047-049-050-058-095>099-210400-
WEST-CENTRAL ILLINOIS

CITY           SKY/WX    TMP DP  RH WIND       PRES   REMARKS
QUINCY         CLOUDY    50  30  46 SW16      29.78S
GALESBURG*     PTCLDY    46  32  57 S12       29.75F
MACOMB*        PTCLDY    47  31  54 S9        29.78F
JACKSONVILLE*  PTCLDY    47  29  50 S13G20    29.81S
PITTSFIELD*    CLOUDY    51  29  42 S13G18    29.81S
$$

ILZ028>032-037-038-041>044-048-051>054-059>061-210400-
CENTRAL ILLINOIS

CITY           SKY/WX    TMP DP  RH WIND       PRES   REMARKS
PONTIAC        CLOUDY    43  33  68 S18G25    29.80S
BLOOMINGTON    CLOUDY    43  30  60 S24G33    29.81S
DECATUR        CLOUDY    43  29  57 S21G26    29.86R
PEORIA         CLOUDY    45  32  60 S15       29.79S
LACON*         MOCLDY    46  31  57 S15G22    29.76S
LINCOLN*       CLOUDY    44  33  66 S13       29.83S
SPRINGFIELD    PTCLDY    45  32  60 S21       29.83F
TAYLORVILLE    CLOUDY    42  31  66 S21       29.87S
$$

ILZ033-039-045-046-055>057-062-063-210400-
EAST-CENTRAL ILLINOIS

CITY           SKY/WX    TMP DP  RH WIND       PRES   REMARKS
CHAMPAIGN      CLEAR     40  30  67 S21       29.87R
DANVILLE*      CLEAR     41  28  60 S20G25    29.85S
RANTOUL*       CLEAR     42  32  67 S14       29.86S
MATTOON        CLEAR     43  28  55 S13       29.89R
PARIS*         CLEAR     40  30  66 S17       29.89F
$$

ILZ079-100>102-210400-
SOUTHWEST ILLINOIS

CITY           SKY/WX    TMP DP  RH WIND       PRES   REMARKS
ALTON          CLEAR     43  32  65 S9        29.89R
BELLEVILLE     CLOUDY    43  31  62 SW10      29.90R
CAHOKIA*       CLOUDY    45  27  49 S6        29.89F
SPARTA*        CLEAR     44  30  58 S20       29.93F
$$

ILZ064>066-069>071-074>076-080>082-084>086-088>090-092>094-210400-
SOUTH-CENTRAL ILLINOIS

CITY           SKY/WX    TMP DP  RH WIND       PRES   REMARKS
CARBONDALE     CLEAR     42  28  57 S10       29.97F
CAIRO*         CLEAR     41  28  60 S7        30.02S
EFFINGHAM*     CLEAR     45  29  53 S12G22    29.92F
MARION         CLEAR     43  28  56 S10       29.98F
MT. VERNON     CLEAR     43  28  55 S14       29.94F
CENTRALIA*     CLEAR     44  30  57 S20       29.92S
SALEM*         CLEAR     46  27  47 S18G24    29.91F
METROPOLIS*    CLEAR     42  26  52 SE3       30.03F
$$

ILZ067-068-072-073-078-083-087-091-210400-
SOUTHEAST ILLINOIS

CITY           SKY/WX    TMP DP  RH WIND       PRES   REMARKS
LAWRENCEVILLE  CLEAR     42  28  57 S15       29.96F
FLORA*         CLEAR     44  28  53 S17       29.92F
FAIRFIELD*     CLEAR     42  28  58 S6        29.94F
HARRISBURG*    CLEAR     39  28  64 S5        30.01S
ROBINSON*      CLEAR     40  27  60 S10       29.95F
CARMI*         CLEAR     36  29  74 S9        29.99F WCI  29
$$

ABBREVIATIONS USED IN REMARKS
   TC - TEMPERATURE IN CELSIUS
  WCI - WIND CHILL INDEX
   HX - HEAT INDEX
  VSB - VISIBILITY
$$





USA.gov is the U.S. government's official web portal to all federal, state and local government web resources and services.